Location: Cherry Springs State Park
(41.6616°N, 77.8240°W)
Time: 15:29:23
(UTC-05:00)

Amateur Radio Satellites - All Passes

Search period start: 26 January 2015 14:59
Search period end: 27 January 2015 14:59
Location: Cherry Springs State Park, 41.6616°N, 77.8240°W

Satellite Date Start Highest point End Downlink Frequencies (MHz)
Time Altitude Azimuth
VERMONT LUNAR 26 Jan 14:59:48 15:02:45 24° 205° (SSW) 15:05:41 437.305
JAS-2 26 Jan 15:01:09 15:05:16 23° 66° (ENE) 15:09:20 435.910
AUBIESAT-1 26 Jan 15:04:42 15:07:07 19° 100° (E) 15:09:38 437.475
RS-15 26 Jan 15:05:36 15:16:56 73° 242° (WSW) 15:28:43 29.354- 29.394
BEESAT 26 Jan 15:11:02 15:14:19 18° 296° (WNW) 15:17:27 436.000
ITUPSAT 1 26 Jan 15:12:53 15:16:09 18° 296° (WNW) 15:19:15 437.325
CUSAT 1 26 Jan 15:16:40 15:23:18 53° 73° (ENE) 15:28:17 437.405
PCSat 26 Jan 15:28:21 15:32:49 26° 251° (WSW) 15:37:08 145.827
HORYU 2 26 Jan 15:32:54 15:36:53 30° 264° (W) 15:40:51 437.375
PHONESAT 2.4 26 Jan 15:39:56 15:42:56 23° 206° (SSW) 15:45:54 2401.200-2431.200
O/OREOS (USA 219) 26 Jan 15:53:34 15:56:28 18° 101° (E) 15:59:31 437.305
MOZHAYETS 4 26 Jan 16:02:40 16:05:30 17° 90° (E) 16:08:31
M-CUBED/EXP-1 PRIME 26 Jan 16:03:02 16:06:18 56° 291° (WNW) 16:09:36 437.505
CUTE-I 26 Jan 16:03:42 16:05:46 13° 59° (ENE) 16:08:06 437.470
DANDE 26 Jan 16:13:42 16:20:48 64° 266° (W) 16:26:06 436.750
KKS-1 26 Jan 16:23:33 16:26:02 14° 297° (WNW) 16:28:19 437.445
STARS 26 Jan 16:23:33 16:26:51 20° 294° (WNW) 16:30:00 437.465
AO-7 26 Jan 16:30:57 16:38:38 38° 263° (W) 16:46:13 29.400- 29.500
AUBIESAT-1 26 Jan 16:39:27 16:42:06 22° 295° (WNW) 16:44:42 437.475
JAS-2 26 Jan 16:44:47 16:50:14 46° 261° (W) 16:55:17 435.910
CUSAT 1 26 Jan 17:00:49 17:05:35 21° 278° (W) 17:09:22 437.405
Cubesat XI-IV 26 Jan 17:19:02 17:24:14 59° 72° (ENE) 17:29:30 437.490
RS-15 26 Jan 17:21:09 17:27:46 16° 260° (W) 17:33:32 29.354- 29.394
PRISM 26 Jan 17:30:53 17:32:46 13° 90° (E) 17:34:52 437.425
O/OREOS (USA 219) 26 Jan 17:31:15 17:35:33 44° 298° (WNW) 17:39:55 437.305
MOZHAYETS 4 26 Jan 17:38:41 17:43:05 48° 287° (WNW) 17:47:27
CUTE-I 26 Jan 17:39:49 17:45:08 88° 81° (E) 17:50:31 437.470
CUBESAT XI-V 26 Jan 17:46:23 17:49:09 16° 90° (E) 17:52:08 437.345
HO-68 26 Jan 17:59:54 18:02:08 12° 50° (NE) 18:04:46 435.675
STRAND 1 26 Jan 18:16:23 18:20:26 24° 93° (E) 18:24:36 437.568
YUBILEINY 26 Jan 18:42:20 18:48:49 25° 83° (E) 18:55:39 435.215
SO-50 26 Jan 18:51:27 18:55:33 26° 44° (NE) 18:59:42 436.795
Cubesat XI-IV 26 Jan 19:01:11 19:04:49 18° 270° (W) 19:08:16 437.490
PRISM 26 Jan 19:04:38 19:08:40 51° 287° (WNW) 19:12:42 437.425
BRITE-PL 26 Jan 19:11:47 19:15:58 28° 67° (ENE) 19:20:32 437.365/2234.400
COMPASS 1 26 Jan 19:12:37 19:14:17 12° 64° (ENE) 19:16:09 437.405
CANX-2 26 Jan 19:16:17 19:19:29 21° 68° (ENE) 19:22:45 2200.000
CUBESAT XI-V 26 Jan 19:22:25 19:26:59 53° 287° (WNW) 19:31:33 437.345
GOMX 1 26 Jan 19:22:35 19:26:39 26° 66° (ENE) 19:31:02 467.674
CUTE-I 26 Jan 19:24:23 19:26:05 11° 274° (W) 19:27:25 437.470
AAUSAT CUBESAT 2 26 Jan 19:39:37 19:42:44 21° 68° (ENE) 19:45:58 437.432
CUTE 1.7 + AOD 2 26 Jan 19:40:08 19:43:59 33° 71° (ENE) 19:47:53 437.475
HO-68 26 Jan 19:41:36 19:48:34 59° 69° (ENE) 19:55:36 435.675
DOVE 4 26 Jan 19:48:22 19:52:46 33° 69° (ENE) 19:57:27 437.250
DELFI C3 26 Jan 19:53:37 19:54:55 12° 64° (ENE) 19:56:27 145.870
CUBEBUG 2 26 Jan 19:54:57 19:57:05 13° 63° (ENE) 19:59:27 437.445
STRAND 1 26 Jan 19:54:59 19:59:50 42° 290° (WNW) 20:04:39 437.568
CINEMA 3 26 Jan 19:57:52 20:01:43 24° 66° (ENE) 20:05:45 145.822/145.860
UKube-1 26 Jan 20:06:46 20:08:47 14° 63° (ENE) 20:11:01 .
SEEDS 26 Jan 20:14:29 20:18:44 70° 76° (ENE) 20:22:59 437.485
ZACube-1 26 Jan 20:15:10 20:17:34 15° 64° (ENE) 20:20:10 437.345
DX 1 26 Jan 20:22:46 20:25:56 21° 66° (ENE) 20:29:13 434.975-435.025
FUNcube-1 26 Jan 20:27:19 20:30:27 19° 66° (ENE) 20:33:44 145.935
SO-50 26 Jan 20:31:36 20:36:22 49° 242° (WSW) 20:41:05 436.795
AISAT 26 Jan 20:35:38 20:36:43 11° 61° (ENE) 20:38:02 437.250
YUBILEINY 26 Jan 20:36:19 20:44:58 68° 281° (WNW) 20:53:40 435.215
UWE-3 26 Jan 20:39:05 20:43:05 30° 69° (ENE) 20:47:12 435.000/436.395/437.385
HUMSAT D 26 Jan 20:41:11 20:43:23 14° 65° (ENE) 20:45:46 437.325/437.525
COMPASS 1 26 Jan 20:45:22 20:49:34 63° 259° (W) 20:53:46 437.405
50 SAT 26 Jan 20:45:30 20:46:28 11° 63° (ENE) 20:47:38 437.505
BRITE-PL 26 Jan 20:49:49 20:54:22 36° 266° (W) 20:59:14 437.365/2234.400
CANX-2 26 Jan 20:51:16 20:55:14 35° 263° (W) 20:59:12 2200.000
GOMX 1 26 Jan 20:59:53 21:04:34 40° 264° (W) 21:09:32 467.674
VELOX 1 26 Jan 21:03:06 21:06:19 21° 66° (ENE) 21:09:40 145.980
Oscar 11 26 Jan 21:06:23 21:10:46 87° 257° (WSW) 21:15:08 145.826/435.025
AAUSAT CUBESAT 2 26 Jan 21:14:24 21:18:15 33° 264° (W) 21:22:05 437.432
CUTE 1.7 + AOD 2 26 Jan 21:16:41 21:20:02 21° 267° (W) 21:23:17 437.475
CUBEBUG 1 26 Jan 21:21:47 21:23:40 13° 63° (ENE) 21:25:45 437.445
DELFI C3 26 Jan 21:25:40 21:29:43 63° 259° (W) 21:33:47 145.870
DOVE 4 26 Jan 21:26:08 21:30:32 30° 267° (W) 21:35:05 437.250
CUBEBUG 2 26 Jan 21:28:30 21:33:13 75° 259° (W) 21:38:02 437.445
HO-68 26 Jan 21:30:52 21:36:47 26° 267° (W) 21:42:31 435.675
CINEMA 3 26 Jan 21:34:04 21:38:41 41° 263° (W) 21:43:26 145.822/145.860
UKube-1 26 Jan 21:40:14 21:44:31 61° 259° (W) 21:48:51 .
ZACube-1 26 Jan 21:48:55 21:53:29 63° 260° (W) 21:58:05 437.345
SEEDS 26 Jan 21:54:42 21:55:09 10° 273° (W) 21:55:17 437.485
DX 1 26 Jan 21:57:56 22:01:59 37° 262° (W) 22:06:03 434.975-435.025
POLYITAN 1 26 Jan 22:00:01 22:01:24 12° 88° (E) 22:03:01 437.675
FUNcube-1 26 Jan 22:02:04 22:06:30 46° 262° (W) 22:10:57 145.935
ESTCUBE 1 26 Jan 22:02:25 22:06:31 37° 71° (ENE) 22:10:40 437.505/2401.250
ANTELSAT 26 Jan 22:05:01 22:08:32 23° 93° (E) 22:12:04 437.575/2403.000
AISAT 26 Jan 22:08:19 22:12:46 81° 259° (WSW) 22:17:15 437.250
BUGSAT 1 26 Jan 22:13:44 22:15:30 13° 89° (E) 22:17:28 437.445
TIGRISAT 26 Jan 22:14:16 22:18:07 28° 95° (E) 22:21:55 435.000
HUMSAT D 26 Jan 22:14:28 22:18:46 58° 260° (W) 22:23:05 437.325/437.525
UWE-3 26 Jan 22:15:32 22:19:36 29° 266° (W) 22:23:41 435.000/436.395/437.385
50 SAT 26 Jan 22:16:57 22:21:05 71° 260° (W) 22:25:14 437.505
AIST 1 26 Jan 22:17:22 22:21:17 33° 76° (ENE) 22:25:15
POPSAT HIP 1 26 Jan 22:20:12 22:23:19 20° 92° (E) 22:26:30 437.405
DUCHIFAT 1 26 Jan 22:24:26 22:27:43 21° 93° (E) 22:31:04 145.980
VELOX 1 26 Jan 22:38:32 22:42:42 39° 263° (W) 22:46:52 145.980
YUBILEINY 26 Jan 22:39:38 22:43:56 14° 306° (NW) 22:47:40 435.215
SPROUT 26 Jan 22:52:33 22:56:13 28° 70° (ENE) 22:59:58 437.525
CUBEBUG 1 26 Jan 22:55:17 22:59:35 64° 259° (W) 23:03:57 437.445
NANOSAT C BR1 26 Jan 22:57:42 23:01:54 50° 99° (E) 23:06:06 145.865
UNISAT 6 26 Jan 23:05:15 23:09:46 79° 284° (WNW) 23:14:08 437.425
ISS 26 Jan 23:06:32 23:09:48 78° 145° (SE) 23:13:06 145.825
QB50P2 26 Jan 23:10:18 23:14:38 72° 102° (ESE) 23:18:55 145.880/145.840
QB50P1 26 Jan 23:20:39 23:25:00 88° 284° (WNW) 23:29:17 145.935-145.965
POLYITAN 1 26 Jan 23:33:34 23:37:52 63° 285° (WNW) 23:42:06 437.675
TISAT 1 26 Jan 23:38:43 23:42:57 89° 256° (WSW) 23:47:15 437.305
ESTCUBE 1 26 Jan 23:40:07 23:43:34 21° 267° (W) 23:46:55 437.505/2401.250
ANTELSAT 26 Jan 23:41:24 23:45:27 33° 290° (WNW) 23:49:21 437.575/2403.000
BUGSAT 1 26 Jan 23:47:13 23:51:26 57° 286° (WNW) 23:55:38 437.445
TIGRISAT 26 Jan 23:51:00 23:54:51 27° 292° (WNW) 23:58:31 435.000
POPSAT HIP 1 26 Jan 23:55:23 23:59:23 37° 289° (WNW) 00:03:19 437.405
AIST 1 26 Jan 23:55:31 23:58:47 20° 271° (W) 00:01:56
DUCHIFAT 1 26 Jan 23:59:47 00:03:41 33° 290° (WNW) 00:07:32 145.980
SWISSCUBE 27 Jan 00:22:41 00:27:12 45° 71° (ENE) 00:31:46 437.505
Oscar 19 27 Jan 00:26:15 00:28:24 13° 87° (E) 00:30:50 437.125/150
SPROUT 27 Jan 00:28:42 00:32:19 25° 266° (W) 00:35:55 437.525
NANOSAT C BR1 27 Jan 00:34:48 00:37:26 16° 295° (WNW) 00:39:54 145.865
BEESAT 27 Jan 00:38:51 00:43:32 61° 73° (ENE) 00:48:16 436.000
ITUPSAT 1 27 Jan 00:40:59 00:45:40 63° 73° (ENE) 00:50:24 437.325
GONETS M04 27 Jan 00:43:16 00:50:44 34° 86° (E) 00:58:22
ISS 27 Jan 00:43:58 00:46:38 22° 342° (NNW) 00:49:18 145.825
QB50P2 27 Jan 00:48:30 00:50:02 11° 297° (WNW) 00:51:20 145.880/145.840
M-CUBED/EXP-1 PRIME 27 Jan 01:19:01 01:21:32 17° 63° (ENE) 01:24:03 437.505
KKS-1 27 Jan 01:43:42 01:48:05 57° 73° (ENE) 01:52:31 437.445
STARS 27 Jan 01:43:44 01:47:49 37° 70° (ENE) 01:51:57 437.465
AUBIESAT-1 27 Jan 01:53:16 01:56:56 34° 67° (ENE) 02:00:23 437.475
O/OREOS (USA 219) 27 Jan 02:01:40 02:05:55 36° 61° (ENE) 02:10:11 437.305
SWISSCUBE 27 Jan 02:01:54 02:05:21 19° 268° (W) 02:08:40 437.505
Oscar 19 27 Jan 02:03:17 02:08:27 75° 286° (WNW) 02:13:34 437.125/150
BEESAT 2 27 Jan 02:03:58 02:06:25 16° 111° (ESE) 02:09:03 435.950
ITAMSAT 1 27 Jan 02:13:21 02:18:24 48° 99° (E) 02:23:28 435.822/435.867
BEESAT 27 Jan 02:19:15 02:21:54 14° 271° (W) 02:24:18 436.000
BEESAT 3 27 Jan 02:19:46 02:23:11 26° 114° (ESE) 02:26:42 437.485
ITUPSAT 1 27 Jan 02:21:33 02:24:06 14° 271° (W) 02:26:24 437.325
ISS 27 Jan 02:22:05 02:24:02 15° 2° (N) 02:26:00 145.825
GONETS M04 27 Jan 02:38:44 02:47:18 53° 285° (WNW) 02:55:46
AO-7 27 Jan 02:41:42 02:45:06 13° 85° (E) 02:49:08 29.400- 29.500
CUSAT 1 27 Jan 02:44:40 02:48:04 14° 79° (ENE) 02:52:08 437.405
M-CUBED/EXP-1 PRIME 27 Jan 02:52:22 02:56:21 42° 255° (WSW) 03:00:01 437.505
Gurwin Techsat 1B 27 Jan 02:54:42 03:00:03 81° 102° (ESE) 03:05:23 435.225
MOZHAYETS 4 27 Jan 03:05:21 03:08:17 17° 66° (ENE) 03:11:21
STARS 27 Jan 03:21:04 03:24:27 21° 267° (W) 03:27:45 437.465
AIST 2 27 Jan 03:22:21 03:26:23 45° 117° (ESE) 03:30:32 435.215
KKS-1 27 Jan 03:22:47 03:25:11 14° 271° (W) 03:27:22 437.445
RS-15 27 Jan 03:23:21 03:28:46 16° 100° (E) 03:35:00 29.354- 29.394
HORYU 2 27 Jan 03:23:36 03:27:57 50° 100° (E) 03:32:16 437.375
AUBIESAT-1 27 Jan 03:28:58 03:31:56 19° 260° (W) 03:34:40 437.475
BEESAT 2 27 Jan 03:40:16 03:44:17 50° 307° (NW) 03:48:22 435.950
DANDE 27 Jan 03:40:31 03:47:16 32° 86° (E) 03:54:42 436.750
O/OREOS (USA 219) 27 Jan 03:41:32 03:45:11 23° 257° (WSW) 03:48:42 437.305
Oscar 19 27 Jan 03:46:37 03:47:01 10° 302° (WNW) 03:47:06 437.125/150
JAS-2 27 Jan 03:52:47 03:56:45 20° 92° (E) 04:01:15 435.910
ITAMSAT 1 27 Jan 03:53:35 03:57:38 22° 295° (WNW) 04:01:33 435.822/435.867
BEESAT 3 27 Jan 03:57:33 04:01:16 31° 312° (NW) 04:04:59 437.485
ISS 27 Jan 03:58:32 04:01:23 26° 21° (NNE) 04:04:14 145.825
CUSAT 1 27 Jan 04:21:54 04:29:50 68° 95° (E) 04:38:15 437.405
PRISM 27 Jan 04:23:08 04:24:15 11° 63° (ENE) 04:25:35 437.425
PCSat 27 Jan 04:26:25 04:31:23 40° 112° (ESE) 04:36:28 145.827
AO-7 27 Jan 04:31:10 04:39:32 74° 105° (ESE) 04:47:50 29.400- 29.500
Gurwin Techsat 1B 27 Jan 04:36:32 04:39:26 14° 299° (WNW) 04:42:05 435.225
MOZHAYETS 4 27 Jan 04:40:43 04:45:11 50° 261° (W) 04:49:40
CUBESAT XI-V 27 Jan 04:50:38 04:53:27 17° 65° (ENE) 04:56:26 437.345
YUBILEINY 27 Jan 04:52:43 04:55:34 12° 53° (NE) 04:59:05 435.215
HORYU 2 27 Jan 05:01:25 05:04:16 17° 296° (WNW) 05:06:59 437.375
AIST 2 27 Jan 05:01:53 05:05:15 22° 316° (NW) 05:08:36 435.215
DANDE 27 Jan 05:22:18 05:30:17 63° 285° (WNW) 05:38:55 436.750
RS-15 27 Jan 05:28:37 05:39:27 76° 119° (ESE) 05:50:27 29.354- 29.394
STRAND 1 27 Jan 05:32:25 05:36:59 35° 69° (ENE) 05:41:37 437.568
ISS 27 Jan 05:34:50 05:38:05 54° 220° (SW) 05:41:19 145.825
Cubesat XI-IV 27 Jan 05:36:47 05:40:56 23° 92° (E) 05:45:12 437.490
JAS-2 27 Jan 05:36:47 05:42:14 58° 287° (WNW) 05:48:18 435.910
PRISM 27 Jan 05:55:12 05:59:18 68° 258° (WSW) 06:03:25 437.425
CUTE-I 27 Jan 05:57:02 06:01:54 35° 96° (E) 06:06:48 437.470
CUSAT 1 27 Jan 06:06:28 06:13:34 30° 295° (WNW) 06:20:42 437.405
PCSat 27 Jan 06:10:04 06:14:55 32° 310° (NW) 06:19:45 145.827
AO-7 27 Jan 06:24:57 06:31:41 27° 304° (NW) 06:38:09 29.400- 29.500
CUBESAT XI-V 27 Jan 06:26:03 06:30:32 52° 261° (W) 06:35:04 437.345
YUBILEINY 27 Jan 06:46:05 06:54:46 62° 77° (ENE) 07:03:29 435.215
DANDE 27 Jan 07:11:04 07:15:48 15° 307° (NW) 07:20:05 436.750
STRAND 1 27 Jan 07:11:52 07:16:15 28° 265° (W) 07:20:35 437.568
Cubesat XI-IV 27 Jan 07:16:09 07:21:18 46° 290° (WNW) 07:26:24 437.490
BRITE-PL 27 Jan 07:19:29 07:19:58 10° 82° (E) 07:20:55 437.365/2234.400
CUTE-I 27 Jan 07:37:12 07:41:57 31° 293° (WNW) 07:46:35 437.470
RS-15 27 Jan 07:43:00 07:52:58 37° 325° (NW) 08:02:58 29.354- 29.394
SEEDS 27 Jan 08:01:24 08:02:35 11° 88° (E) 08:04:01 437.485
COMPASS 1 27 Jan 08:29:51 08:32:55 20° 92° (E) 08:36:03 437.405
UNISAT 6 27 Jan 08:31:17 08:32:31 11° 62° (ENE) 08:34:01 437.425
CANX-2 27 Jan 08:36:25 08:40:21 37° 97° (E) 08:44:17 2200.000
YUBILEINY 27 Jan 08:43:50 08:51:05 29° 276° (W) 08:58:04 435.215
BRITE-PL 27 Jan 08:53:47 08:59:32 79° 101° (E) 09:05:04 437.365/2234.400
Oscar 11 27 Jan 08:54:52 08:57:34 17° 91° (E) 09:00:24 145.826/435.025
POLYITAN 1 27 Jan 08:55:07 08:55:40 10° 62° (ENE) 08:56:26 437.675
HO-68 27 Jan 08:56:24 09:03:28 60° 101° (ESE) 09:10:32 435.675
AAUSAT CUBESAT 2 27 Jan 08:57:26 09:01:16 35° 97° (E) 09:05:05 437.432
CUTE 1.7 + AOD 2 27 Jan 09:00:45 09:04:58 65° 101° (E) 09:09:08 437.475
GOMX 1 27 Jan 09:01:21 09:06:49 67° 100° (E) 09:12:03 467.674
ANTELSAT 27 Jan 09:04:19 09:08:01 24° 67° (ENE) 09:11:49 437.575/2403.000
DELFI C3 27 Jan 09:06:50 09:09:29 17° 92° (E) 09:12:15 145.870
TIGRISAT 27 Jan 09:13:10 09:17:08 28° 69° (ENE) 09:21:11 435.000
POPSAT HIP 1 27 Jan 09:14:11 09:16:48 17° 65° (ENE) 09:19:35 437.405
DUCHIFAT 1 27 Jan 09:18:02 09:20:50 18° 66° (ENE) 09:23:47 145.980
CUBEBUG 2 27 Jan 09:20:40 09:24:19 24° 92° (E) 09:27:58 437.445
VERMONT LUNAR 27 Jan 09:24:00 09:26:50 24° 154° (SSE) 09:29:44 437.305
DOVE 4 27 Jan 09:24:41 09:29:59 80° 103° (ESE) 09:35:01 437.250
UKube-1 27 Jan 09:28:28 09:31:48 22° 93° (E) 09:35:13 .
CINEMA 3 27 Jan 09:29:04 09:33:51 50° 98° (E) 09:38:25 145.822/145.860
SEEDS 27 Jan 09:34:45 09:38:55 60° 285° (WNW) 09:43:01 437.485
ZACube-1 27 Jan 09:38:25 09:42:04 25° 93° (E) 09:45:41 437.345
DX 1 27 Jan 09:46:00 09:50:01 35° 97° (E) 09:54:04 434.975-435.025
NANOSAT C BR1 27 Jan 09:50:46 09:54:43 39° 71° (ENE) 09:58:44 145.865
FUNcube-1 27 Jan 09:50:56 09:54:57 33° 96° (E) 09:58:54 145.935
50 SAT 27 Jan 09:57:44 10:00:04 15° 90° (E) 10:02:32 437.505
HUMSAT D 27 Jan 09:59:35 10:02:55 22° 93° (E) 10:06:16 437.325/437.525
AISAT 27 Jan 10:00:06 10:03:19 20° 92° (E) 10:06:40 437.250
RS-15 27 Jan 10:01:51 10:09:45 21° 358° (N) 10:17:50 29.354- 29.394
QB50P2 27 Jan 10:03:29 10:07:40 55° 73° (ENE) 10:11:53 145.880/145.840
UNISAT 6 27 Jan 10:03:58 10:08:42 87° 257° (WSW) 10:13:27 437.425
COMPASS 1 27 Jan 10:04:59 10:08:46 33° 289° (WNW) 10:12:28 437.405
UWE-3 27 Jan 10:05:03 10:09:34 59° 100° (E) 10:13:54 435.000/436.395/437.385
PHONESAT 2.4 27 Jan 10:08:55 10:12:04 28° 156° (SSE) 10:15:15 2401.200-2431.200
CANX-2 27 Jan 10:13:00 10:16:05 19° 293° (WNW) 10:19:02 2200.000
QB50P1 27 Jan 10:13:34 10:17:49 71° 75° (ENE) 10:22:07 145.935-145.965
BEESAT 2 27 Jan 10:22:55 10:25:17 15° 39° (NE) 10:27:45 435.950
POLYITAN 1 27 Jan 10:26:43 10:31:01 81° 256° (WSW) 10:35:23 437.675
VELOX 1 27 Jan 10:28:54 10:33:06 38° 98° (E) 10:37:17 145.980
Oscar 11 27 Jan 10:29:55 10:34:01 43° 288° (WNW) 10:38:05 145.826/435.025
AAUSAT CUBESAT 2 27 Jan 10:33:41 10:36:44 19° 293° (WNW) 10:39:39 437.432
BRITE-PL 27 Jan 10:33:51 10:37:23 17° 298° (WNW) 10:40:40 437.365/2234.400
BUGSAT 1 27 Jan 10:37:29 10:41:34 80° 257° (WSW) 10:45:45 437.445
CUTE 1.7 + AOD 2 27 Jan 10:38:43 10:40:26 12° 296° (WNW) 10:41:57 437.475
BEESAT 3 27 Jan 10:38:53 10:42:05 21° 44° (NE) 10:45:19 437.485
ANTELSAT 27 Jan 10:40:15 10:44:39 37° 263° (W) 10:49:01 437.575/2403.000
GOMX 1 27 Jan 10:40:43 10:44:24 18° 297° (WNW) 10:47:49 467.674
DELFI C3 27 Jan 10:41:10 10:44:55 36° 288° (WNW) 10:48:36 145.870
CUBEBUG 1 27 Jan 10:44:40 10:48:12 23° 94° (E) 10:51:48 437.445
HO-68 27 Jan 10:44:53 10:50:48 28° 299° (WNW) 10:56:34 435.675
SO-50 27 Jan 10:46:11 10:50:35 53° 118° (ESE) 10:55:12 436.795
AIST 1 27 Jan 10:48:11 10:51:09 19° 88° (E) 10:54:15
POPSAT HIP 1 27 Jan 10:48:16 10:52:23 46° 261° (W) 10:56:33 437.405
TIGRISAT 27 Jan 10:49:37 10:53:49 31° 265° (W) 10:57:59 435.000
DUCHIFAT 1 27 Jan 10:52:22 10:56:25 42° 262° (W) 11:00:31 145.980
GONETS M04 27 Jan 10:53:34 10:58:27 17° 57° (ENE) 11:03:48
CUBEBUG 2 27 Jan 10:56:57 11:01:08 34° 290° (WNW) 11:05:09 437.445
VERMONT LUNAR 27 Jan 11:01:11 11:04:39 63° 171° (S) 11:08:09 437.305
UKube-1 27 Jan 11:04:06 11:08:05 34° 290° (WNW) 11:12:00 .
DOVE 4 27 Jan 11:04:15 11:07:04 14° 299° (WNW) 11:09:35 437.250
CINEMA 3 27 Jan 11:07:13 11:10:40 19° 296° (WNW) 11:13:54 145.822/145.860
ZACube-1 27 Jan 11:14:33 11:18:29 30° 291° (WNW) 11:22:17 437.345
DX 1 27 Jan 11:22:39 11:26:07 22° 293° (WNW) 11:29:28 434.975-435.025
TISAT 1 27 Jan 11:24:56 11:27:17 15° 90° (E) 11:29:48 437.305
FUNcube-1 27 Jan 11:27:35 11:31:09 23° 293° (WNW) 11:34:33 145.935
NANOSAT C BR1 27 Jan 11:27:46 11:30:48 18° 268° (W) 11:33:43 145.865
ESTCUBE 1 27 Jan 11:31:18 11:35:51 80° 103° (ESE) 11:40:23 437.505/2401.250
50 SAT 27 Jan 11:31:37 11:35:28 41° 288° (WNW) 11:39:16 437.505
HUMSAT D 27 Jan 11:35:00 11:38:47 31° 290° (WNW) 11:42:27 437.325/437.525
AISAT 27 Jan 11:35:55 11:40:10 40° 289° (WNW) 11:44:22 437.250
QB50P2 27 Jan 11:41:54 11:44:01 13° 271° (W) 11:45:54 145.880/145.840
Oscar 19 27 Jan 11:42:43 11:46:28 21° 65° (ENE) 11:50:23 437.125/150
UWE-3 27 Jan 11:43:04 11:45:38 15° 296° (WNW) 11:48:00 435.000/436.395/437.385
AIST 2 27 Jan 11:44:09 11:48:04 34° 49° (NE) 11:51:58 435.215
PHONESAT 2.4 27 Jan 11:46:46 11:50:23 68° 172° (S) 11:54:01 2401.200-2431.200
ITAMSAT 1 27 Jan 11:57:32 11:57:58 10° 58° (ENE) 11:58:42 435.822/435.867
BEESAT 2 27 Jan 11:59:53 12:04:04 76° 239° (WSW) 12:08:11 435.950
VELOX 1 27 Jan 12:06:01 12:09:28 22° 294° (WNW) 12:12:50 145.980
SPROUT 27 Jan 12:14:28 12:18:45 54° 100° (E) 12:23:01 437.525
BEESAT 3 27 Jan 12:16:29 12:20:27 43° 243° (WSW) 12:24:21 437.485
RS-15 27 Jan 12:17:03 12:26:51 34° 32° (NNE) 12:37:11 29.354- 29.394
CUBEBUG 1 27 Jan 12:20:39 12:24:39 33° 290° (WNW) 12:28:36 437.445
AIST 1 27 Jan 12:24:45 12:28:37 33° 285° (WNW) 12:32:29
SWISSCUBE 27 Jan 12:25:20 12:26:37 11° 87° (E) 12:28:15 437.505
SO-50 27 Jan 12:27:48 12:31:30 22° 318° (NW) 12:35:12 436.795
Gurwin Techsat 1B 27 Jan 12:38:33 12:41:53 18° 62° (ENE) 12:45:24 435.225
VERMONT LUNAR 27 Jan 12:39:13 12:42:43 69° 187° (S) 12:46:14 437.305
BEESAT 27 Jan 12:40:23 12:43:05 15° 90° (E) 12:46:00 436.000
ITUPSAT 1 27 Jan 12:42:46 12:45:36 16° 90° (E) 12:48:39 437.325
GONETS M04 27 Jan 12:48:19 12:57:04 80° 81° (E) 13:05:46
TISAT 1 27 Jan 12:59:17 13:03:27 49° 287° (WNW) 13:07:35 437.305
ESTCUBE 1 27 Jan 13:10:40 13:12:10 11° 298° (WNW) 13:13:26 437.505/2401.250
PCSat 27 Jan 13:13:53 13:18:50 35° 51° (NE) 13:23:49 145.827
Oscar 19 27 Jan 13:20:27 13:25:30 51° 260° (W) 13:30:35 437.125/150
AIST 2 27 Jan 13:23:01 13:26:35 25° 246° (WSW) 13:30:02 435.215
PHONESAT 2.4 27 Jan 13:25:16 13:28:53 65° 190° (S) 13:32:31 2401.200-2431.200
ITAMSAT 1 27 Jan 13:31:32 13:36:40 75° 75° (ENE) 13:41:53 435.822/435.867
KKS-1 27 Jan 13:37:26 13:38:27 11° 87° (E) 13:39:45 437.445
AO-7 27 Jan 13:40:18 13:46:25 24° 54° (NE) 13:52:47 29.400- 29.500
SPROUT 27 Jan 13:51:55 13:54:28 15° 295° (WNW) 13:56:51 437.525
SWISSCUBE 27 Jan 14:00:22 14:05:10 76° 285° (WNW) 14:09:57 437.505
Gurwin Techsat 1B 27 Jan 14:16:08 14:21:24 65° 258° (WSW) 14:26:42 435.225
BEESAT 27 Jan 14:16:42 14:21:24 56° 287° (WNW) 14:26:03 436.000
VERMONT LUNAR 27 Jan 14:17:29 14:20:36 29° 203° (SSW) 14:23:43 437.305
ITUPSAT 1 27 Jan 14:19:14 14:23:55 54° 288° (WNW) 14:28:35 437.325
HORYU 2 27 Jan 14:22:10 14:26:29 48° 72° (ENE) 14:30:51 437.375
DANDE 27 Jan 14:25:29 14:30:42 22° 59° (ENE) 14:35:12 436.750
RS-15 27 Jan 14:29:30 14:40:56 89° 236° (WSW) 14:52:52 29.354- 29.394
GONETS M04 27 Jan 14:46:51 14:53:01 21° 279° (W) 14:58:47
